Weather in Rabaul

Papua New Guinea     4°11′48″S   152°10′25″E
temp.,
°C
wind,
m/s
gust,
m/s
humid.,
%
clouds,
%
prec.,
mm/h
press.,
hPa
HPBL,
m
17 september, fri
fri1701:00+26s47765 0.0 1010366
04:00+25s46785 0.0 1009354
07:00+26sse477910 0.0 1011418
10:00+29se66675 0.0 1011763
13:00+29se88665 0.0 1008581
16:00+29se9117135 0.1 1007660
19:00+27sse697696 0.4 1010470
22:00+27sse610809 0.4 1011578
18 september, sat
sat1801:00+26sse610825 0.0 1009550
04:00+26sse69815 0.0 1009503
07:00+26sse588023 0.0 1011467
10:00+29se676810 0.0 1011737
13:00+29se7766100 0.0 1008546
16:00+29se786994 0.8 1008532
19:00+28sse797371 1.8 1010522
22:00+27sse347599 2.1 1011263
19 september, sun
sun1901:00+26s3476100 0.5 1010235
04:00+26ese3479100 1.4 1010322
07:00+26ese128494 1.1 1011309
10:00+27ene337926 1.4 1011351
13:00+28e337555 0.3 1008410
16:00+29se346990 2.8 1007407
19:00+28sse457241 2.1 1009346
22:00+26s457836 2.4 1010230
20 september, mon
mon2001:00+26ssw348038 0.5 1009206
04:00+25ssw33815 0.6 1008207
07:00+26s337865 0.0 1010217
10:00+28e236946 0.0 1010491
13:00+29ese5566100 0.6 1007585
16:00+29se346578 0.6 1006604
19:00+28sse557120 0.2 1008343
22:00+27s467783 1.1 1010310
21 september, tue
tue2101:00+26s347895 1.3 1008221
04:00+26s337598 1.3 1007215
07:00+26s237511 0.0 1009202
10:00+28ene22695 0.0 1009382
13:00+28ene33735 0.0 1007523
16:00+29ene22675 0.1 1006685
19:00+28sse347415 0.1 1008420
22:00+27s348226 0.3 1009278